User: anonymous   Login
Location: Unspecified
(0.0000°N, 0.0000°E)
Time: 19:08:34
(UTC+01:00)
Language:

Delta 2 Rocket - Orbit

View from above orbital plane
View from above orbital plane
View from above satellite
View from above satellite

Ground track
Ground track

The orbit data is extracted from the following two-line orbital elements,

1 20453U 90008B   16042.99185758  .00004797  00000-0  28499-3 0  9998
2 20453  35.6237 232.0374 0297324  48.5760 314.0102 14.80781286375281
Epoch (UTC): 11 February 2016 23:48:16
Eccentricity: 0.0297324
inclination: 35.6237°
perigee height: 418 km
apogee height: 835 km
right ascension of ascending node: 232.0374°
argument of perigee: 48.5760°
revolutions per day: 14.80781286
mean anomaly at epoch: 314.0102°
orbit number at epoch: 37528

The dashed part of the orbit path shows where the satellite is in the earth's shadow,  

DLR